Date String (YYYY-MM-DD hh:mm:ss) UTC,Instrument flags,Ambient pressure (hPa),Sample flow (lpm),Bypass flow (lpm),Sample temperature (°C),Ambient temperature (°C),ASC tube jacket temperature (°C),LED temperature (°C),Box temperature (°C),Sample RH (%),Span deviation,Mass concentration (μg/m³),Mass concentration (μg/m³),Mass concentration (μg/m³)
DateTimeUTC,F1_M11,P_M11,Q1_M11,Q2_M11,T1_M11,T2_M11,T3_M11,T4_M11,T5_M11,U1_M11,ZSPAN_M11,X0_M11,X2_M11,X1_M11
2022-09-21 11:00:00,,0831.1,5.00,0.00,30.2,28.4,00.0,39.0,32.0,23.4,0001.8,0022.97,0006.36,0005.02
2022-09-21 11:01:00,,0831.0,4.99,0.00,30.2,28.5,00.0,39.0,32.0,23.5,0001.5,0022.83,0006.38,0005.02
2022-09-21 11:02:00,,0831.1,5.01,0.00,30.2,28.6,00.0,39.0,32.0,23.5,0001.0,0021.30,0006.43,0005.03
2022-09-21 11:03:00,,0831.1,5.00,0.00,30.2,28.7,00.0,39.0,32.0,23.5,0000.7,0020.65,0006.49,0005.03
2022-09-21 11:04:00,,0831.2,4.99,0.00,30.2,28.8,00.0,39.0,32.0,23.4,0000.9,0020.45,0006.47,0005.03
2022-09-21 11:05:00,,0831.2,5.00,0.00,30.2,28.9,00.0,39.0,32.1,23.5,0000.8,0020.60,0006.39,0005.02
2022-09-21 11:06:00,,0831.2,4.99,0.00,30.2,28.9,00.0,39.0,32.1,23.5,0000.9,0020.14,0006.36,0005.03
2022-09-21 11:07:00,,0831.2,5.01,0.00,30.3,29.0,00.0,39.0,32.1,23.5,0000.9,0019.25,0006.33,0005.03
2022-09-21 11:08:00,,0831.2,4.99,0.00,30.3,29.0,00.0,39.0,32.1,23.4,0000.7,0018.79,0006.34,0005.03
2022-09-21 11:09:00,,0831.2,4.99,0.00,30.3,29.0,00.0,39.0,32.2,23.4,0000.6,0018.05,0006.34,0005.03
2022-09-21 11:10:00,,0831.2,5.01,0.00,30.3,29.1,00.0,39.0,32.2,23.4,0000.8,0017.26,0006.35,0005.04
2022-09-21 11:11:00,,0831.2,4.99,0.00,30.3,29.1,00.0,39.0,32.2,23.4,0000.9,0015.97,0006.28,0005.04
2022-09-21 11:12:00,,0831.2,5.00,0.00,30.4,29.1,00.0,39.1,32.2,23.4,0001.0,0015.98,0006.27,0005.04
2022-09-21 11:13:00,,0831.2,5.01,0.00,30.4,29.2,00.0,39.1,32.2,23.4,0000.9,0016.77,0006.25,0005.03
2022-09-21 11:14:00,,0831.2,5.00,0.00,30.4,29.2,00.0,39.1,32.3,23.3,0000.2,0017.16,0006.19,0005.03
2022-09-21 11:15:00,,0831.3,4.98,0.00,30.4,29.2,00.0,39.1,32.3,23.3,0000.0,0017.19,0006.21,0005.02
2022-09-21 11:16:00,,0831.3,5.01,0.00,30.5,29.2,00.0,39.1,32.3,23.3,0000.0,0017.66,0006.23,0005.04
2022-09-21 11:17:00,,0831.3,4.99,0.00,30.5,29.2,00.0,39.2,32.3,23.3,0000.1,0017.35,0006.23,0005.04
2022-09-21 11:18:00,,0831.3,5.00,0.00,30.5,29.3,00.0,39.2,32.4,23.3,0000.1,0017.64,0006.30,0005.04
2022-09-21 11:19:00,,0831.3,5.00,0.00,30.5,29.3,00.0,39.2,32.4,23.3,0000.2,0018.47,0006.31,0005.03
2022-09-21 11:20:00,,0831.4,5.00,0.00,30.5,29.2,00.0,39.2,32.4,23.3,0000.0,0018.46,0006.29,0005.03
2022-09-21 11:21:00,,0831.4,4.99,0.00,30.5,27.8,00.0,39.2,32.3,23.3,0000.0,0017.93,0006.25,0005.03
2022-09-21 11:22:00,,0831.3,5.01,0.00,30.5,27.0,00.0,39.1,32.2,23.3,0000.5,0018.46,0006.26,0005.02
2022-09-21 11:23:00,,0831.3,5.01,0.00,30.4,27.0,00.0,39.1,32.1,23.5,0000.4,0018.53,0006.28,0005.04
2022-09-21 11:24:00,,0831.3,5.00,0.00,30.3,27.3,00.0,39.1,32.0,23.6,0000.3,0017.37,0006.24,0005.05
2022-09-21 11:25:00,,0831.3,4.99,0.00,30.3,27.6,00.0,39.0,31.9,23.7,0000.0,0016.27,0006.23,0005.05
2022-09-21 11:26:00,,0831.3,5.00,0.00,30.2,27.9,00.0,39.0,31.9,23.8,0000.0,0016.07,0006.20,0005.06
2022-09-21 11:27:00,,0831.2,5.01,0.00,30.2,28.1,00.0,39.0,32.0,23.8,0000.6,0014.73,0006.20,0005.05
2022-09-21 11:28:00,,0831.2,4.98,0.00,30.2,28.3,00.0,39.0,32.0,23.8,0000.0,0014.52,0006.21,0005.05
2022-09-21 11:29:00,,0831.2,5.01,0.00,30.2,28.5,00.0,39.0,32.0,23.9,0000.0,0014.35,0006.23,0005.04
2022-09-21 11:30:00,,0831.3,4.99,0.00,30.2,28.6,00.0,39.0,32.0,23.9,0000.0,0013.24,0006.24,0005.05
2022-09-21 11:31:00,,0831.3,5.00,0.00,30.2,28.7,00.0,39.0,32.0,23.9,0000.0,0013.80,0006.20,0005.05
2022-09-21 11:32:00,,0831.3,4.99,0.00,30.2,28.7,00.0,39.0,32.0,23.9,0000.0,0014.17,0006.20,0005.04
2022-09-21 11:33:00,,0831.3,4.99,0.00,30.2,28.8,00.0,39.0,32.0,24.0,0000.0,0013.54,0006.26,0005.05
2022-09-21 11:34:00,,0831.3,5.01,0.00,30.2,28.8,00.0,39.0,32.1,24.0,0000.0,0012.54,0006.25,0005.05
2022-09-21 11:35:00,,0831.3,5.00,0.00,30.3,28.9,00.0,39.0,32.1,24.0,0000.0,0012.45,0006.28,0005.04
2022-09-21 11:36:00,,0831.3,5.01,0.00,30.3,28.9,00.0,39.0,32.1,23.9,0000.0,0012.89,0006.31,0005.06
2022-09-21 11:37:00,,0831.3,5.00,0.00,30.3,29.0,00.0,39.0,32.1,23.9,0000.0,0013.38,0006.32,0005.05
2022-09-21 11:38:00,,0831.4,4.99,0.00,30.3,29.0,00.0,39.0,32.2,23.9,0000.0,0013.62,0006.32,0005.07
2022-09-21 11:39:00,,0831.4,5.00,0.00,30.3,29.1,00.0,39.0,32.2,23.9,0002.7,0014.37,0006.30,0005.07
2022-09-21 11:40:00,,0831.5,5.01,0.00,30.4,29.1,00.0,39.1,32.2,23.8,0002.3,0014.88,0006.24,0005.08
2022-09-21 11:41:00,,0831.5,4.99,0.00,30.4,29.1,00.0,39.1,32.2,23.8,0002.4,0015.62,0006.21,0005.08
2022-09-21 11:42:00,,0831.5,5.00,0.00,30.4,29.1,00.0,39.1,32.3,23.8,0002.5,0016.46,0006.29,0005.09
2022-09-21 11:43:00,,0831.5,5.00,0.00,30.4,29.2,00.0,39.1,32.3,23.8,0002.8,0016.44,0006.29,0005.10
2022-09-21 11:44:00,,0831.5,5.01,0.00,30.4,29.2,00.0,39.1,32.3,23.8,0002.1,0016.85,0006.26,0005.10
2022-09-21 11:45:00,,0831.6,5.00,0.00,30.5,29.2,00.0,39.2,32.3,23.7,0001.8,0017.38,0006.24,0005.09
2022-09-21 11:46:00,,0831.5,4.99,0.00,30.5,29.2,00.0,39.2,32.3,23.7,0001.4,0017.52,0006.24,0005.10
2022-09-21 11:47:00,,0831.5,5.01,0.00,30.5,29.2,00.0,39.2,32.3,23.7,0001.4,0018.16,0006.30,0005.10
2022-09-21 11:48:00,,0831.5,4.99,0.00,30.5,29.2,00.0,39.2,32.4,23.7,0001.0,0018.50,0006.31,0005.11
2022-09-21 11:49:00,,0831.5,5.00,0.00,30.5,28.3,00.0,39.2,32.3,23.7,0001.0,0019.48,0006.32,0005.11
2022-09-21 11:50:00,,0831.5,5.00,0.00,30.5,27.1,00.0,39.2,32.2,23.7,0000.3,0019.12,0006.37,0005.11
2022-09-21 11:51:00,,0831.5,5.00,0.00,30.4,26.9,00.0,39.1,32.1,23.8,0000.4,0018.94,0006.41,0005.12
2022-09-21 11:52:00,,0831.5,4.99,0.00,30.3,27.2,00.0,39.1,32.0,24.0,0000.5,0018.30,0006.43,0005.13
2022-09-21 11:53:00,,0831.5,5.00,0.00,30.3,27.5,00.0,39.0,31.9,24.1,0000.3,0017.34,0006.42,0005.14
2022-09-21 11:54:00,,0831.5,5.00,0.00,30.2,27.8,00.0,39.0,31.9,24.2,-000.2,0017.12,0006.47,0005.13
2022-09-21 11:55:00,,0831.6,5.00,0.00,30.2,28.0,00.0,39.0,31.9,24.2,-000.1,0016.86,0006.46,0005.13
2022-09-21 11:56:00,,0831.6,4.99,0.00,30.2,28.2,00.0,39.0,31.9,24.3,-000.1,0016.47,0006.48,0005.14
2022-09-21 11:57:00,,0831.6,5.00,0.00,30.2,28.4,00.0,39.0,32.0,24.3,-000.2,0017.75,0006.49,0005.13
2022-09-21 11:58:00,,0831.6,5.00,0.00,30.2,28.5,00.0,39.0,32.0,24.4,-000.3,0016.90,0006.45,0005.11
2022-09-21 11:59:00,,0831.7,4.99,0.00,30.2,28.6,00.0,39.0,32.0,24.4,-000.4,0016.38,0006.45,0005.10
